Location: Austin
(30.3000°N, 97.7500°W)
Time: 07:25:12
(UTC-06:00)

Cosmos 1743 Rocket - Pass Details

Date: 10 January 2026
Orbit: 598 x 625 km, 82.6° (Epoch: 22 January)

Event Time Altitude Azimuth Distance (km) Brightness Sun altitude
Rises 18:16:04 0° 351° (N) 2,871 6.8 -6.2°
Reaches altitude 10° 18:18:18 10° 350° (N) 1,959 6.0 -6.7°
Maximum altitude 18:22:36 73° 267° (W) 634 3.8 -7.5°
Drops below altitude 10° 18:26:52 10° 182° (S) 1,933 6.4 -8.4°
Sets 18:29:04 0° 180° (S) 2,829 7.2 -8.8°
